Showing default

HAWK-C, 43799

Orbit data source: Space-Track

HAWK-C, 43799 is a payload satellite owned by HawkEye 360 (US) in SSO that was launched on Mon, 03 Dec 2018 UTC via an FALCON 9 launch vehicle from the Air Force Western Test Range (AFWTR). Payload-class satellites include a variety of spacecraft equipped with specific instruments for various scientific and technological missions. These include communications satellites like Starlink; space stations such as the ISS; scientific satellites like the Hubble; Earth observation satellites from companies like Planet Labs, Umbra, and HawkEye 360; GPS; miniature CubeSats for education and research; and military/defense satellites.

Loading next visibility...
Identifier
43799, 2018-099AT
Orbit
SSO
Country
Flag of USUS
Related business
Manufacturer
UTIAS-SFL
Mission
Operational Commercial Sigint
Bus & Motor
NEMO-V1, Unknown motor
Mass
12.75 kg wet, 12 kg dry
Launch date (UTC)
2018-12-03 (7 years ago)
Launch vehicle
FALCON 9
Launch site
Air Force Western Test Range (AFWTR)
Object type
Payload
Rocket body
Debris
Shape & HBR
Box + 2 Pan, 1.0 m
Radar Cross Section
0.348 m², Medium (>0.1 m² and < 1m²)

Expand to show TLE details & history
Last TLE update: 14 hours ago

TLE from 14 hours ago
0 HAWK-C
1 43799U 18099AT  25340.65356547  .00014704  00000-0  58808-3 0  9992
2 43799  97.4195  30.5325 0042572 244.5728 115.1100 15.24344234384544
Epoch: 2025-12-06T15:41Z
TLE epoch observation values (Epoch: 2025-12-06T15:41:08.056Z)
Latitude
-0.00011°
Longitude
79.57074°
Altitude
508.368 km
Speed
7.603 km/s
True Right ascension
02h 02m 07s
True Declination
0° 00' 00"
Sunlit
Object was in full shadow at epoch
Visualization orbit readout
Latitude
Unknown
Longitude
Unknown
Altitude
Unknown
Speed
Unknown
Apparent Right ascension
Unknown
Apparent Declination
Unknown
Sunlit
N/A
Visualization observer readout
Local Sidereal Time
04:08:04
Azimuth
Unknown
Elevation
Unknown
Doppler factor
Unknown
Orbital elements
Apogee altitude
518.954 km
Perigee altitude
460.478 km
Semi-major axis
6,867.853 km
Eccentricity
0.00426
Inclination
97.4195°
RAAN
30.5325°
Arg. of periapsis
244.5728°
True anomaly
115.55074°
Mean anomaly
115.11°
Eccentric anomaly
115.33047°
Mean motion
3.81339 °/min
Orbital period
94.4 mins
BSTAR
0.00058808
Loading maneuver chart data...
Computing Atmospheric mass density...
Loading historical data...
Loading historical data...
Loading historical data...
Loading historical data...
Loading historical data...
Loading historical data...
Loading historical data...

Documentation

Showing up to 5 results
|